Terug naar catalogus

JACK-003

ActiefWetenschapSSO
NORAD 66654·PAYLOAD·🇰🇷 South Korea

Gelanceerd Nov 26, 2025 vanaf Naro Space Center

Loading…

Volgende Passages (komende 24 uur)

TLE

VersSource: Space-Track

Epoch: Sep 14, 2026, 05:38 UTC

1 66654U 25274E   26257.23475764  .00001523  00000-0  15040-3 0  9991
2 66654  97.7483 185.0888 0014534  63.4092 296.8615 14.93354922 43507

Volg JACK-003 in realtime met AllMySat

Download on the App Store